FW5763 Weather Reports


Display with metric or nautical units.
time (UTC)temp
F
wind
direction
speed
MPH
gust
MPH
rain 1hr
in
rain 24hr
in
rain mn
in
humidity
%
barometer
mb
20260902080816 54 0.0 0.0 0.00 0.00 0.00 85 1017.8
20260902075816 54 0.0 0.0 0.00 0.00 0.00 85 1017.8
20260902074937 54 0.0 0.0 0.00 0.00 0.00 84 1017.8
20260902073816 54 0.0 0.0 0.00 0.00 0.00 84 1017.9
20260902072816 54 0.0 0.0 0.00 0.00 0.00 83 1017.9
20260902071816 55 0.0 0.0 0.00 0.00 0.00 83 1017.8
20260902070816 55 0.0 0.0 0.00 0.00 0.00 83 1017.8
20260902065816 55 0.0 0.0 0.00 0.00 0.00 83 1017.8
20260902064836 55 0.0 0.0 0.00 0.00 0.00 82 1017.8
20260902063816 55 0.0 0.0 0.00 0.00 0.00 82 1017.7
20260902062816 56 0.0 0.0 0.00 0.00 0.00 82 1017.8
20260902061816 56 0.0 0.0 0.00 0.00 0.00 80 1017.8
20260902060816 56 0.0 0.0 0.00 0.00 0.00 80 1017.7
20260902055816 56 0.0 0.0 0.00 0.00 0.00 79 1017.9
20260902054816 57 0.0 0.0 0.00 0.00 0.00 78 1018.0
20260902053816 57 0.0 0.0 0.00 0.00 0.00 78 1018.0
20260902052816 57 0.0 0.0 0.00 0.00 0.00 78 1018.1
20260902051816 57 0.0 0.0 0.00 0.00 0.00 77 1018.2
20260902050816 58 0.0 0.0 0.00 0.00 0.00 76 1018.1
20260902045816 58 0.0 0.0 0.00 0.00 0.00 75 1018.1
20260902044816 58 0.0 0.0 0.00 0.00 0.00 75 1018.1
20260902043816 59 0.0 0.0 0.00 0.00 0.00 74 1018.0
20260902042816 59 0.0 0.0 0.00 0.00 0.00 74 1018.0
20260902041836 59 0.0 0.0 0.00 0.00 0.00 73 1018.0
20260902040816 60 0.0 0.0 0.00 0.00 0.00 72 1017.9
20260902035816 60 0.0 0.0 0.00 0.00 0.00 71 1017.7
20260902034836 61 0.0 0.0 0.00 0.00 0.00 70 1017.5
20260902033816 62 253 0.0 1.0 0.00 0.00 0.00 70 1017.5
20260902032816 62 253 1.0 2.0 0.00 0.00 0.00 68 1017.3
20260902031814 62 250 1.0 2.0 0.00 0.00 0.00 68 1017.2
20260902030836 62 244 2.0 3.0 0.00 0.00 0.00 67 1017.2
20260902025816 63 255 3.0 4.0 0.00 0.00 0.00 67 1017.0
20260902024816 63 267 3.0 4.0 0.00 0.00 0.00 67 1017.0
20260902023816 64 256 4.0 7.0 0.00 0.00 0.00 66 1016.9
20260902022816 64 253 3.0 6.0 0.00 0.00 0.00 66 1016.9
20260902021816 65 247 3.0 5.0 0.00 0.00 0.00 65 1016.8
20260902020816 65 226 3.0 8.0 0.00 0.00 0.00 65 1016.7
20260902015816 66 259 4.0 8.0 0.00 0.00 0.00 65 1016.8
20260902014816 66 240 4.0 9.0 0.00 0.00 0.00 65 1016.7
20260902013815 67 235 7.0 12.0 0.00 0.00 0.00 65 1016.6
20260902012816 67 203 4.0 8.0 0.00 0.00 0.00 64 1016.6
20260902011816 68 211 2.0 5.0 0.00 0.00 0.00 64 1016.6
20260902010816 67 231 6.0 10.0 0.00 0.00 0.00 65 1016.4
20260902005816 67 234 7.0 9.0 0.00 0.00 0.00 66 1016.4
20260902004815 68 223 8.0 13.0 0.00 0.00 0.00 65 1016.4
20260902003816 68 219 3.0 7.0 0.00 0.00 0.00 66 1016.4
20260902002816 67 220 5.0 8.0 0.00 0.00 0.00 67 1016.4
20260902001815 68 208 6.0 11.0 0.00 0.00 0.00 67 1016.3
20260902000836 68 206 5.0 9.0 0.00 0.00 0.00 67 1016.4
20260901235816 67 196 6.0 13.0 0.00 0.00 0.00 67 1016.4
20260901234815 68 243 4.0 7.0 0.00 0.00 0.00 67 1016.5
20260901233816 67 231 7.0 10.0 0.00 0.00 0.00 67 1016.5
20260901232835 67 218 8.0 10.0 0.00 0.00 0.00 67 1016.6
20260901231816 67 262 9.0 13.0 0.00 0.00 0.00 66 1016.7
20260901230815 67 239 8.0 11.0 0.00 0.00 0.00 64 1016.8
20260901225816 68 241 8.0 12.0 0.00 0.00 0.00 63 1016.8
20260901224815 67 212 7.0 14.0 0.00 0.00 0.00 63 1016.8
20260901223836 68 200 5.0 12.0 0.00 0.00 0.00 63 1016.7
20260901222815 67 221 7.0 14.0 0.00 0.00 0.00 64 1016.9
20260901221815 67 216 7.0 12.0 0.00 0.00 0.00 64 1017.0
20260901220835 67 226 9.0 15.0 0.00 0.00 0.00 63 1017.0
20260901215816 67 209 5.0 10.0 0.00 0.00 0.00 67 1017.0
20260901214816 67 233 6.0 9.0 0.00 0.00 0.00 65 1017.1
20260901213815 67 218 8.0 12.0 0.00 0.00 0.00 64 1017.1
20260901212815 67 195 9.0 15.0 0.00 0.00 0.00 64 1017.2
20260901211855 67 222 7.0 11.0 0.00 0.00 0.00 63 1017.1
20260901210835 67 165 4.0 8.0 0.00 0.00 0.00 67 1017.1
20260901205816 66 214 7.0 10.0 0.00 0.00 0.00 65 1017.2
20260901204815 66 190 6.0 10.0 0.00 0.00 0.00 66 1017.3
20260901203815 66 188 8.0 14.0 0.00 0.00 0.00 68 1017.4
20260901202815 66 214 8.0 14.0 0.00 0.00 0.00 69 1017.6
20260901201815 66 190 8.0 14.0 0.00 0.00 0.00 73 1017.6
20260901200815 65 189 4.0 14.0 0.00 0.00 0.00 74 1017.9
20260901195835 64 214 7.0 11.0 0.00 0.00 0.00 72 1017.8
20260901194815 64 231 6.0 16.0 0.00 0.00 0.00 72 1017.8
20260901193815 63 217 9.0 13.0 0.00 0.00 0.00 73 1018.0
20260901192815 63 224 8.0 11.0 0.00 0.00 0.00 73 1018.1
20260901191835 63 197 5.0 9.0 0.00 0.00 0.00 75 1018.1
20260901190815 64 208 6.0 10.0 0.00 0.00 0.00 71 1018.0
20260901185815 65 204 5.0 9.0 0.00 0.00 0.00 69 1017.9
20260901184815 64 204 5.0 8.0 0.00 0.00 0.00 73 1018.0
20260901183815 63 227 6.0 8.0 0.00 0.00 0.00 73 1018.0
20260901182815 64 218 4.0 7.0 0.00 0.00 0.00 69 1017.9
20260901181815 64 156 4.0 8.0 0.00 0.00 0.00 69 1017.9
20260901180815 63 89 0.0 1.0 0.00 0.00 0.00 70 1017.9
20260901175815 64 228 3.0 5.0 0.00 0.00 0.00 75 1017.9
20260901174835 63 203 3.0 11.0 0.00 0.00 0.00 76 1017.9
20260901173815 63 208 2.0 8.0 0.00 0.00 0.00 73 1017.8
20260901172815 64 146 5.0 9.0 0.00 0.00 0.00 71 1017.6
20260901171818 63 255 0.0 1.0 0.00 0.00 0.00 64 1017.5
20260901170816 64 37 2.0 5.0 0.00 0.00 0.00 64 1017.5
20260901165817 63 110 3.0 5.0 0.00 0.00 0.00 64 1017.4
20260901164817 63 303 1.0 3.0 0.00 0.00 0.00 71 1017.3
20260901163837 62 287 2.0 3.0 0.00 0.00 0.00 73 1017.4
20260901162816 61 103 0.0 2.0 0.00 0.00 0.00 75 1017.4
20260901161818 61 139 1.0 2.0 0.00 0.00 0.00 75 1017.6
20260901160818 61 294 1.0 2.0 0.00 0.00 0.00 75 1017.6
20260901155817 60 55 1.0 2.0 0.00 0.00 0.00 75 1017.4
20260901154817 60 74 1.0 3.0 0.00 0.00 0.00 76 1017.3
20260901153817 60 85 0.0 1.0 0.00 0.00 0.00 77 1016.9
20260901152818 60 95 0.0 2.0 0.00 0.00 0.00 78 1016.9
20260901151837 60 83 1.0 3.0 0.00 0.00 0.00 77 1016.9
20260901150817 59 115 0.0 2.0 0.00 0.00 0.00 78 1016.9
20260901145817 59 0.0 0.0 0.00 0.00 0.00 76 1016.8
20260901144818 59 5 0.0 1.0 0.00 0.00 0.00 76 1016.6
20260901143818 59 5 0.0 1.0 0.00 0.00 0.00 76 1016.5
20260901142817 59 5 0.0 1.0 0.00 0.00 0.00 77 1016.4
20260901141817 58 74 0.0 1.0 0.00 0.00 0.00 77 1016.4
20260901140817 58 0.0 1.0 0.00 0.00 0.00 77 1016.2
20260901135837 58 0.0 0.0 0.00 0.00 0.00 77 1016.0
20260901134817 58 0.0 1.0 0.00 0.00 0.00 76 1015.9
20260901133818 58 0.0 0.0 0.00 0.00 0.00 76 1015.9
20260901132818 59 0.0 0.0 0.00 0.00 0.00 76 1015.8
20260901132118 59 0.0 0.0 0.00 0.00 0.00 75 1015.7
20260901131116 59 70 0.0 1.0 0.00 0.00 0.00 75 1015.8
20260901130117 59 0.0 1.0 0.00 0.00 0.00 74 1015.6
20260901125117 59 311 0.0 1.0 0.00 0.00 0.00 75 1015.6
20260901124137 59 360 0.0 1.0 0.00 0.00 0.00 75 1015.6
20260901123117 59 0.0 1.0 0.00 0.00 0.00 75 1015.6
20260901122138 59 299 1.0 3.0 0.00 0.00 0.00 75 1015.6
20260901121117 59 284 0.0 1.0 0.00 0.00 0.00 75 1015.5
20260901120116 59 284 1.0 2.0 0.00 0.00 0.00 75 1015.4
20260901115117 59 284 1.0 2.0 0.00 0.00 0.00 75 1015.5
20260901114117 59 284 1.0 2.0 0.00 0.00 0.00 75 1015.5
20260901113116 59 0.0 0.0 0.00 0.00 0.00 75 1015.6
20260901112117 59 220 2.0 5.0 0.00 0.00 0.00 74 1015.7
20260901111137 59 336 1.0 2.0 0.00 0.00 0.00 73 1015.6
20260901110114 59 13 3.0 4.0 0.00 0.00 0.00 73 1015.4
20260901105115 59 5 2.0 3.0 0.00 0.00 0.00 74 1015.6
20260901104115 59 279 0.0 1.0 0.00 0.00 0.00 73 1015.4
20260901103215 59 313 2.0 3.0 0.00 0.00 0.00 73 1015.4
20260901102114 59 0.0 1.0 0.00 0.00 0.00 72 1015.4
20260901101115 59 320 2.0 3.0 0.00 0.00 0.00 73 1015.3
20260901100115 59 312 2.0 4.0 0.00 0.00 0.00 73 1015.4
20260901095114 59 258 2.0 3.0 0.00 0.00 0.00 74 1015.4
20260901094134 59 302 3.0 6.0 0.00 0.00 0.00 74 1015.3
20260901093134 59 295 4.0 7.0 0.00 0.00 0.00 74 1015.3
20260901092114 59 282 2.0 3.0 0.00 0.00 0.00 75 1015.1
20260901091114 60 281 2.0 3.0 0.00 0.00 0.00 76 1015.2
20260901090115 60 0.0 0.0 0.00 0.00 0.00 76 1015.2
20260901085114 60 284 1.0 2.0 0.00 0.00 0.00 76 1015.1
20260901084115 60 0.0 1.0 0.00 0.00 0.00 76 1015.1
20260901083114 60 0.0 0.0 0.00 0.00 0.00 76 1015.1
20260901082115 60 261 0.0 1.0 0.00 0.00 0.00 76 1015.2
20260901081115 60 261 0.0 1.0 0.00 0.00 0.00 76 1015.1